Notices

What's New in latest Release from April 7th, 2021:

- Updated Glossary, including Speed of Maximum Gust, and Total Hourly Precipitation

- Updated national and regional climate services offices contacts and prices information

- Addition of station inventory lists for 1981-2010, 1971-2000, and 1961-1990 Normals.

If you haven't already, please take our survey and provide feedback about our website: https://eccc.sondage-survey.ca/f/LanguageSelection.aspx?s=442ca660-fcf1-47c0-95a9-59707d6fd709

Hourly Data Report for January 21, 2006

TORONTO CITY
ONTARIO

43°40'00.000" N
79°24'00.000" W
112.50 m
6158355
71508
XTO

Download Data

Hourly Data (January 2006)
Hourly Data Report for January 21, 2006
TIME
LST
Temp Definition
°C
Dew Point Definition
°C
Rel Hum Definition
%
Precip. Amount Definition
mm

Wind Dir Definition
10's deg

Wind Spd Definition
km/h
Visibility Definition
km
Stn Press Definition
kPa
Hmdx Definition


Wind Chill Definition


Weather Definition


00:00 1.8 1.2 96   LegendMM LegendMM   100.03     LegendNANA
01:00 1.5 1.0 96   LegendMM LegendMM   99.83     LegendNANA
02:00 1.6 1.1 96   LegendMM LegendMM   99.66     LegendNANA
03:00 1.6 1.1 96   LegendMM LegendMM   99.55     LegendNANA
04:00 1.6 1.1 96   LegendMM LegendMM   99.45     LegendNANA
05:00 1.6 1.1 96   LegendMM LegendMM   99.31     LegendNANA
06:00 1.6 1.0 96   LegendMM LegendMM   99.26     LegendNANA
07:00 1.6 1.0 96   LegendMM LegendMM   99.26     LegendNANA
08:00 1.2 0.4 94   LegendMM LegendMM   99.30     LegendNANA
09:00 0.6 0.1 96   LegendMM LegendMM   99.52     LegendNANA
10:00 1.1 0.4 95   LegendMM LegendMM   99.89     LegendNANA
11:00 1.2 -0.2 90   LegendMM LegendMM   100.11     LegendNANA
12:00 0.3 -2.5 81   LegendMM LegendMM   100.37     LegendNANA
13:00 2.0 -1.8 76   LegendMM LegendMM   100.62     LegendNANA
14:00 2.0 -2.2 74   LegendMM LegendMM   100.82     LegendNANA
15:00 1.6 -3.0 71   LegendMM LegendMM   101.00     LegendNANA
16:00 1.6 -4.6 63   LegendMM LegendMM   101.18     LegendNANA
17:00 0.9 -5.2 64   LegendMM LegendMM   101.35     LegendNANA
18:00 0.2 -5.2 67   LegendMM LegendMM   101.55     LegendNANA
19:00 -0.7 -6.5 65   LegendMM LegendMM   101.68     LegendNANA
20:00 -0.9 -6.1 68   LegendMM LegendMM   101.78     LegendNANA
21:00 -1.0 -5.8 70   LegendMM LegendMM   101.88     LegendNANA
22:00 -1.1 -5.1 74   LegendMM LegendMM   101.95     LegendNANA
23:00 -0.8 -4.7 75   LegendMM LegendMM   101.98     LegendNANA

Notes on Data Quality.

Legend

  • E = Estimated
  • M = Missing
  • NA = Not Available*
  • [empty] = Indicates an unobserved value
Date modified: